Home > Weather > Muyinga > Past weeks

Flag for Burundi Past Weather in Muyinga, Burundi — Yesterday and Last 2 Weeks

Now
77 °F

Passing clouds.


Feels Like: 79 °F
Forecast: 56 / 73 °F
Wind: 3 mph from South

Location: Kigali Airport

Current Time: May 26, 2016 at 6:35:24 PM

Latest Report: May 26, 2016 at 6:00 PM


Visibility: N/A

Pressure: 30.09 "Hg (24.62 "Hg at 1749m altitude)

Humidity: 47%

Dew Point: 55 °F

Location of MuyingaLocation

Past Weather in Muyinga — Graph

°F

Muyinga Temperature Yesterday

Maximum temperature yesterday: 82 °F (at 3:30 PM)
Minimum temperature yesterday: 64 °F (at 4:00 AM)
Average temperature yesterday: 73 °F

High & Low Weather Summary for the Past Weeks

 TemperatureHumidityPressure
High82 °F (May 25, 3:30 PM)94% (May 12, 3:30 AM)30.30 "Hg (May 12, 3:30 AM)
Low61 °F (May 17, 4:00 AM)40% (May 25, 3:30 PM)30.04 "Hg (May 13, 5:00 PM)
Average72 °F67%30.18 "Hg
* Reported May 11 7:30 PM — May 26 5:00 PM, Muyinga, Weather by CustomWeather, © 2016

Note: Actual official high and low records may vary slightly from our data, if they occured in-between our weather recording intervals... More about our weather records

Advertising

Muyinga Weather History for the Previous 24 Hours

Scroll right to see more
 ConditionsComfort  
Time TempWeatherWind HumidityBarometerVisibility
5:00 PM
Thu, May 26
81 °FScattered clouds.5 mph45%30.09 "HgN/A
4:00 PM81 °FScattered clouds.3 mph42%30.07 "HgN/A
3:30 PM81 °FWarm.N/A42%30.09 "HgN/A
3:00 PM81 °FScattered clouds.6 mph45%30.09 "HgN/A
2:30 PM81 °FScattered clouds.3 mph45%30.09 "HgN/A
2:00 PM81 °FScattered clouds.7 mph48%30.12 "HgN/A
1:00 PM79 °FScattered clouds.6 mph48%30.15 "HgN/A
12:30 PM81 °FScattered clouds.5 mph45%30.18 "HgN/A
12:00 PM79 °FScattered clouds.6 mph51%30.18 "HgN/A
11:00 AM77 °FPassing clouds.5 mph54%30.18 "HgN/A
10:00 AM73 °FScattered clouds.6 mph57%30.24 "HgN/A
9:00 AM72 °FScattered clouds.3 mph61%30.24 "HgN/A
8:00 AM70 °FScattered clouds.2 mph73%30.24 "HgN/A
7:30 AM68 °FScattered clouds.2 mph73%30.21 "HgN/A
7:00 AM64 °FScattered clouds.5 mph83%30.21 "HgN/A
6:30 AM63 °FScattered clouds.3 mph83%30.21 "HgN/A
6:00 AM63 °FScattered clouds.3 mph83%30.18 "HgN/A
10:00 PM
Wed, May 25
72 °FPassing clouds.3 mph61%30.21 "HgN/A
9:30 PM70 °FPassing clouds.3 mph64%30.18 "HgN/A
7:00 PM75 °FPassing clouds.3 mph50%30.15 "HgN/A
Weather by CustomWeather, © 2016

See weather overviewHow to use our weather pages